This is the latest recevied weather packets stored in our database for station/object K4AGR-13. If no packets are shown the sender has not sent any weather packets the latest 10 day(s).
| Time | Temp. | Humidity | Pressure | Rain* | Wind** | Luminosity | Snow |
|---|---|---|---|---|---|---|---|
| 1777733332 | 13.89° C | 94% | 1012.9 hPa | 0 mm | - | 153 W/m² | - |
| 1777733029 | 13.33° C | 94% | 1013.1 hPa | 0 mm | - | 131 W/m² | - |
| 1777732725 | 13.33° C | 94% | 1012.9 hPa | 1.78 mm | - | 138 W/m² | - |
| 1777732422 | 13.33° C | 94% | 1012.8 hPa | 1.78 mm | - | 162 W/m² | - |
| 1777732120 | 13.33° C | 94% | 1012.7 hPa | 0 mm | - | 148 W/m² | - |
| 1777731817 | 13.33° C | 95% | 1012.6 hPa | 1.27 mm | - | 170 W/m² | - |
| 1777731513 | 13.33° C | 94% | 1012.6 hPa | 1.27 mm | - | 125 W/m² | - |
| 1777731212 | 13.33° C | 94% | 1012 hPa | 1.78 mm | - | 124 W/m² | - |
| 1777730909 | 13.33° C | 94% | 1011.7 hPa | 1.78 mm | - | 185 W/m² | - |
| 1777730607 | 13.33° C | 94% | 1011.8 hPa | 0 mm | - | 138 W/m² | - |
| 1777730303 | 12.78° C | 94% | 1012 hPa | 0 mm | - | 129 W/m² | - |
| 1777730000 | 12.78° C | 94% | 1012.1 hPa | 0 mm | - | 103 W/m² | - |
| 1777729696 | 12.78° C | 94% | 1011.9 hPa | 0 mm | - | 135 W/m² | - |
| 1777729393 | 12.78° C | 94% | 1011.8 hPa | 0 mm | - | 83 W/m² | - |
| 1777729089 | 12.78° C | 95% | 1011.4 hPa | 1.27 mm | - | 99 W/m² | - |
| 1777728786 | 12.78° C | 95% | 1011.6 hPa | 1.27 mm | - | 161 W/m² | - |
| 1777728483 | 12.78° C | 95% | 1011.8 hPa | 0 mm | - | 150 W/m² | - |
| 1777728180 | 12.78° C | 95% | 1012.1 hPa | 1.78 mm | - | 83 W/m² | - |
| 1777727877 | 12.78° C | 95% | 1011.8 hPa | 1.78 mm | - | 134 W/m² | - |
| 1777727574 | 12.78° C | 94% | 1012 hPa | 0 mm | - | 72 W/m² | - |
| 1777727271 | 12.78° C | 95% | 1011.8 hPa | 0 mm | - | 63 W/m² | - |
| 1777726969 | 12.78° C | 95% | 1012 hPa | 0 mm | - | 114 W/m² | - |
| 1777726665 | 12.78° C | 95% | 1012.3 hPa | 0 mm | - | 131 W/m² | - |
| 1777726362 | 12.22° C | 95% | 1011.8 hPa | 1.27 mm | - | 120 W/m² | - |
| 1777726059 | 12.22° C | 95% | 1011.5 hPa | 1.27 mm | - | 127 W/m² | - |
* Rain latest hour (hover to see other rain measurements)
** Current wind speed in m/s (hover to see current wind gust speed)